| time (UTC) | temp F | wind direction | speed knots | gust knots | rain 1hr in | rain 24hr in | rain mn in | humidity % | barometer mb |
| 20260506232236 | 55 | 208 | 1.7 | 2.6 | 0.00 | 0.55 | 0.55 | 62 | 1011.3 |
| 20260506231734 | 55 | 24 | 1.7 | 1.7 | 0.00 | 0.55 | 0.55 | 61 | 1011.3 |
| 20260506231232 | 56 | 136 | 0.0 | 1.7 | 0.00 | 0.55 | 0.55 | 67 | 1011.6 |
| 20260506230729 | 56 | 4 | 0.9 | 4.3 | 0.00 | 0.55 | 0.55 | 63 | 1011.4 |
| 20260506230225 | 56 | 169 | 0.0 | 1.7 | 0.00 | 0.55 | 0.55 | 63 | 1011.6 |
| 20260506225722 | 56 | 225 | 0.9 | 1.7 | 0.00 | 0.55 | 0.55 | 64 | 1011.7 |
| 20260506225219 | 56 | 143 | 0.9 | 1.7 | 0.00 | 0.55 | 0.55 | 63 | 1011.3 |
| 20260506224715 | 56 | 130 | 0.9 | 4.3 | 0.00 | 0.55 | 0.55 | 63 | 1011.4 |
| 20260506224212 | 57 | 218 | 1.7 | 4.3 | 0.00 | 0.55 | 0.55 | 64 | 1011.2 |
| 20260506223709 | 57 | 248 | 3.5 | 4.3 | 0.00 | 0.55 | 0.55 | 62 | 1010.9 |
| 20260506223204 | 57 | 90 | 1.7 | 2.6 | 0.00 | 0.55 | 0.55 | 62 | 1011.0 |
| 20260506222702 | 57 | 193 | 0.0 | 5.2 | 0.00 | 0.55 | 0.55 | 61 | 1010.9 |
| 20260506222157 | 57 | 332 | 0.9 | 2.6 | 0.00 | 0.55 | 0.55 | 61 | 1010.9 |
| 20260506221655 | 57 | 131 | 0.9 | 5.2 | 0.00 | 0.55 | 0.55 | 60 | 1011.1 |
| 20260506221153 | 58 | 148 | 1.7 | 2.6 | 0.00 | 0.55 | 0.55 | 60 | 1010.8 |
| 20260506220650 | 58 | 271 | 1.7 | 5.2 | 0.00 | 0.55 | 0.55 | 58 | 1011.0 |
| 20260506220145 | 58 | 291 | 2.6 | 2.6 | 0.00 | 0.55 | 0.55 | 60 | 1010.6 |
| 20260506215642 | 58 | 238 | 0.9 | 1.7 | 0.00 | 0.55 | 0.55 | 59 | 1010.3 |
| 20260506215137 | 58 | 21 | 0.9 | 2.6 | 0.00 | 0.55 | 0.55 | 61 | 1010.4 |
| 20260506214634 | 58 | 173 | 0.9 | 1.7 | 0.00 | 0.55 | 0.55 | 63 | 1010.4 |
| 20260506214132 | 58 | 119 | 0.0 | 1.7 | 0.00 | 0.55 | 0.55 | 62 | 1010.4 |
| 20260506213630 | 59 | 121 | 0.9 | 6.1 | 0.00 | 0.55 | 0.55 | 58 | 1010.3 |
| 20260506213127 | 59 | 166 | 0.0 | 0.9 | 0.00 | 0.55 | 0.55 | 64 | 1010.3 |
| 20260506212624 | 58 | 151 | 0.9 | 2.6 | 0.00 | 0.55 | 0.55 | 60 | 1010.1 |
| 20260506212119 | 58 | 146 | 0.9 | 4.3 | 0.00 | 0.55 | 0.55 | 61 | 1010.2 |
| 20260506211614 | 58 | 27 | 1.7 | 4.3 | 0.00 | 0.55 | 0.55 | 59 | 1010.1 |
| 20260506211112 | 59 | 89 | 0.0 | 5.2 | 0.00 | 0.55 | 0.55 | 59 | 1010.2 |
| 20260506210609 | 59 | 199 | 1.7 | 5.2 | 0.00 | 0.55 | 0.55 | 59 | 1010.0 |
| 20260506210105 | 59 | 11 | 2.6 | 2.6 | 0.00 | 0.55 | 0.55 | 57 | 1010.1 |
| 20260506205602 | 60 | 119 | 2.6 | 5.2 | 0.00 | 0.55 | 0.55 | 55 | 1010.1 |
| 20260506205057 | 60 | 122 | 0.9 | 1.7 | 0.00 | 0.55 | 0.55 | 57 | 1010.0 |
| 20260506204555 | 60 | 187 | 0.9 | 2.6 | 0.00 | 0.55 | 0.55 | 55 | 1009.7 |
| 20260506204051 | 60 | 127 | 0.0 | 1.7 | 0.00 | 0.55 | 0.55 | 57 | 1009.7 |
| 20260506203550 | 60 | 124 | 0.0 | 2.6 | 0.00 | 0.55 | 0.55 | 58 | 1009.9 |
| 20260506203046 | 60 | 75 | 0.9 | 5.2 | 0.00 | 0.55 | 0.55 | 59 | 1009.9 |
| 20260506202544 | 61 | 124 | 0.9 | 2.6 | 0.00 | 0.55 | 0.55 | 59 | 1009.8 |
| 20260506202040 | 61 | 130 | 0.0 | 0.9 | 0.00 | 0.55 | 0.55 | 61 | 1010.0 |
| 20260506201538 | 60 | 164 | 0.9 | 2.6 | 0.00 | 0.55 | 0.55 | 60 | 1010.1 |
| 20260506201034 | 60 | 224 | 2.6 | 5.2 | 0.00 | 0.55 | 0.55 | 56 | 1009.9 |
| 20260506200530 | 60 | 126 | 0.9 | 1.7 | 0.00 | 0.55 | 0.55 | 57 | 1009.9 |
| 20260506200027 | 60 | 113 | 0.9 | 1.7 | 0.00 | 0.55 | 0.55 | 56 | 1009.7 |
| 20260506195524 | 60 | 266 | 2.6 | 6.1 | 0.00 | 0.55 | 0.55 | 56 | 1009.6 |
| 20260506195020 | 60 | 243 | 0.9 | 1.7 | 0.00 | 0.55 | 0.55 | 56 | 1009.8 |
| 20260506194518 | 60 | 245 | 1.7 | 2.6 | 0.00 | 0.55 | 0.55 | 53 | 1009.7 |
| 20260506194014 | 60 | 187 | 2.6 | 4.3 | 0.00 | 0.55 | 0.55 | 58 | 1009.9 |
| 20260506193512 | 60 | 227 | 2.6 | 7.0 | 0.00 | 0.55 | 0.55 | 60 | 1009.9 |
| 20260506193009 | 60 | 231 | 0.9 | 4.3 | 0.00 | 0.55 | 0.55 | 61 | 1009.9 |
| 20260506192505 | 61 | 98 | 0.9 | 2.6 | 0.00 | 0.55 | 0.55 | 58 | 1009.7 |
| 20260506192001 | 60 | 132 | 0.0 | 1.7 | 0.00 | 0.55 | 0.55 | 60 | 1009.9 |
| 20260506191458 | 61 | 219 | 0.9 | 1.7 | 0.00 | 0.55 | 0.55 | 60 | 1010.1 |
| 20260506190955 | 60 | 239 | 0.9 | 4.3 | 0.00 | 0.55 | 0.55 | 59 | 1010.0 |
| 20260506190452 | 60 | 225 | 0.9 | 4.3 | 0.00 | 0.55 | 0.55 | 60 | 1010.1 |
| 20260506185948 | 60 | 58 | 2.6 | 5.2 | 0.00 | 0.55 | 0.55 | 57 | 1010.3 |
| 20260506185446 | 60 | 100 | 0.0 | 0.9 | 0.00 | 0.55 | 0.55 | 58 | 1010.1 |
| 20260506184943 | 59 | 204 | 3.5 | 4.3 | 0.00 | 0.55 | 0.55 | 57 | 1010.4 |
| 20260506184439 | 59 | 202 | 1.7 | 2.6 | 0.00 | 0.55 | 0.55 | 59 | 1010.3 |
| 20260506183937 | 59 | 183 | 2.6 | 4.3 | 0.00 | 0.55 | 0.55 | 63 | 1010.1 |
| 20260506183432 | 59 | 122 | 0.0 | 1.7 | 0.00 | 0.55 | 0.55 | 61 | 1010.1 |
| 20260506182929 | 59 | 87 | 0.0 | 0.9 | 0.00 | 0.55 | 0.55 | 65 | 1010.2 |
| 20260506182427 | 59 | 290 | 3.5 | 6.1 | 0.00 | 0.55 | 0.55 | 64 | 1010.1 |
| 20260506181924 | 58 | 198 | 0.9 | 1.7 | 0.00 | 0.55 | 0.55 | 65 | 1010.4 |
| 20260506181422 | 58 | 116 | 0.9 | 1.7 | 0.00 | 0.55 | 0.55 | 66 | 1010.2 |
| 20260506180918 | 58 | 246 | 0.9 | 5.2 | 0.00 | 0.55 | 0.55 | 64 | 1010.1 |
| 20260506180414 | 58 | 218 | 2.6 | 5.2 | 0.00 | 0.55 | 0.55 | 65 | 1010.0 |
| 20260506175912 | 59 | 90 | 0.9 | 7.8 | 0.00 | 0.55 | 0.55 | 66 | 1010.1 |
| 20260506175408 | 59 | 229 | 2.6 | 4.3 | 0.00 | 0.55 | 0.55 | 66 | 1010.4 |
| 20260506174905 | 59 | 345 | 0.9 | 2.6 | 0.00 | 0.55 | 0.55 | 69 | 1010.1 |
| 20260506174403 | 59 | 116 | 0.9 | 2.6 | 0.00 | 0.55 | 0.55 | 66 | 1010.1 |
| 20260506173900 | 60 | 146 | 0.9 | 2.6 | 0.00 | 0.55 | 0.55 | 67 | 1010.4 |
| 20260506173356 | 59 | 236 | 2.6 | 5.2 | 0.00 | 0.55 | 0.55 | 68 | 1010.2 |
| 20260506172854 | 59 | 1 | 0.9 | 5.2 | 0.00 | 0.55 | 0.55 | 68 | 1010.2 |
| 20260506172350 | 59 | 226 | 1.7 | 6.1 | 0.00 | 0.55 | 0.55 | 69 | 1010.2 |
| 20260506171848 | 58 | 224 | 3.5 | 5.2 | 0.00 | 0.55 | 0.55 | 71 | 1010.3 |
| 20260506171344 | 58 | 105 | 0.9 | 6.1 | 0.00 | 0.55 | 0.55 | 67 | 1010.7 |
| 20260506170842 | 57 | 50 | 4.3 | 7.0 | 0.00 | 0.55 | 0.55 | 68 | 1010.5 |
| 20260506170338 | 58 | 182 | 1.7 | 6.1 | 0.00 | 0.55 | 0.55 | 70 | 1010.4 |
| 20260506165832 | 58 | 108 | 0.9 | 7.0 | 0.00 | 0.55 | 0.55 | 71 | 1010.6 |
| 20260506165329 | 57 | 93 | 0.0 | 2.6 | 0.00 | 0.55 | 0.55 | 74 | 1010.2 |
| 20260506164825 | 57 | 120 | 0.0 | 0.9 | 0.00 | 0.55 | 0.55 | 74 | 1010.1 |
| 20260506164322 | 56 | 230 | 5.2 | 6.1 | 0.00 | 0.55 | 0.55 | 77 | 1009.8 |
| 20260506163819 | 57 | 210 | 4.3 | 5.2 | 0.00 | 0.55 | 0.55 | 75 | 1010.3 |
| 20260506163314 | 56 | 225 | 6.1 | 7.8 | 0.00 | 0.55 | 0.55 | 77 | 1010.5 |
| 20260506162810 | 56 | 78 | 0.9 | 1.7 | 0.00 | 0.55 | 0.55 | 74 | 1010.6 |
| 20260506162308 | 57 | 245 | 1.7 | 4.3 | 0.00 | 0.55 | 0.55 | 76 | 1010.3 |
| 20260506161805 | 56 | 174 | 0.9 | 0.9 | 0.00 | 0.55 | 0.55 | 77 | 1010.4 |
| 20260506161302 | 55 | 117 | 0.0 | 4.3 | 0.00 | 0.55 | 0.55 | 80 | 1010.5 |
| 20260506160800 | 54 | 186 | 1.7 | 2.6 | 0.00 | 0.55 | 0.55 | 80 | 1010.3 |
| 20260506160256 | 53 | 260 | 2.6 | 5.2 | 0.00 | 0.55 | 0.55 | 83 | 1010.3 |
| 20260506155755 | 53 | 267 | 1.7 | 6.1 | 0.00 | 0.55 | 0.55 | 78 | 1010.3 |
| 20260506155251 | 53 | 181 | 4.3 | 7.0 | 0.00 | 0.55 | 0.55 | 81 | 1010.4 |
| 20260506153404 | 52 | 269 | 3.5 | 5.2 | 0.00 | 0.55 | 0.55 | 84 | 1010.0 |
| 20260506152901 | 51 | 25 | 1.7 | 2.6 | 0.00 | 0.55 | 0.55 | 85 | 1010.3 |
| 20260506152358 | 51 | 259 | 2.6 | 2.6 | 0.00 | 0.55 | 0.55 | 85 | 1010.1 |
| 20260506151857 | 51 | 269 | 2.6 | 4.3 | 0.00 | 0.55 | 0.55 | 85 | 1009.9 |
| 20260506151353 | 51 | 255 | 2.6 | 7.0 | 0.00 | 0.55 | 0.55 | 85 | 1009.7 |
| 20260506150851 | 52 | 158 | 1.7 | 4.3 | 0.00 | 0.55 | 0.55 | 86 | 1009.8 |
| 20260506150347 | 52 | 188 | 2.6 | 4.3 | 0.00 | 0.55 | 0.55 | 86 | 1009.6 |
| 20260506145844 | 51 | 130 | 0.0 | 1.7 | 0.00 | 0.55 | 0.55 | 85 | 1009.5 |
| 20260506145340 | 51 | 355 | 5.2 | 7.0 | 0.00 | 0.55 | 0.55 | 86 | 1009.4 |
| 20260506144838 | 51 | 60 | 1.7 | 5.2 | 0.00 | 0.55 | 0.55 | 86 | 1009.6 |
| 20260506144334 | 51 | 280 | 4.3 | 6.1 | 0.00 | 0.55 | 0.55 | 88 | 1009.6 |
| 20260506143833 | 51 | 355 | 1.7 | 4.3 | 0.00 | 0.55 | 0.55 | 88 | 1009.6 |
| 20260506143329 | 51 | 259 | 1.7 | 1.7 | 0.00 | 0.55 | 0.55 | 88 | 1009.3 |
| 20260506142828 | 50 | 209 | 0.9 | 2.6 | 0.00 | 0.55 | 0.55 | 88 | 1009.3 |
| 20260506142325 | 50 | 166 | 0.9 | 2.6 | 0.00 | 0.55 | 0.55 | 89 | 1009.4 |
| 20260506141823 | 50 | 259 | 0.9 | 4.3 | 0.00 | 0.55 | 0.55 | 89 | 1009.1 |
| 20260506141321 | 50 | 126 | 0.9 | 2.6 | 0.00 | 0.55 | 0.55 | 89 | 1009.0 |
| 20260506140819 | 50 | 236 | 1.7 | 4.3 | 0.00 | 0.55 | 0.55 | 89 | 1009.0 |
| 20260506140315 | 50 | 271 | 0.0 | 5.2 | 0.00 | 0.55 | 0.55 | 88 | 1009.0 |
| 20260506135813 | 51 | 203 | 0.9 | 1.7 | 0.00 | 0.55 | 0.55 | 90 | 1008.8 |
| 20260506135309 | 50 | 110 | 0.0 | 0.9 | 0.00 | 0.55 | 0.55 | 89 | 1008.7 |
| 20260506134806 | 50 | 186 | 0.0 | 2.6 | 0.00 | 0.55 | 0.55 | 90 | 1008.8 |
| 20260506134302 | 50 | 182 | 0.9 | 1.7 | 0.00 | 0.55 | 0.55 | 91 | 1008.7 |
| 20260506133759 | 50 | 225 | 0.9 | 1.7 | 0.00 | 0.55 | 0.55 | 91 | 1008.4 |
| 20260506133256 | 50 | 150 | 0.0 | 0.9 | 0.00 | 0.55 | 0.55 | 94 | 1008.5 |
| 20260506132753 | 49 | 205 | 1.7 | 2.6 | 0.00 | 0.55 | 0.55 | 93 | 1008.7 |
| 20260506132250 | 48 | 195 | 0.9 | 1.7 | 0.00 | 0.55 | 0.55 | 94 | 1008.4 |
| 20260506131748 | 49 | 214 | 0.9 | 0.9 | 0.00 | 0.55 | 0.55 | 95 | 1008.5 |
| 20260506131243 | 48 | 103 | 0.9 | 2.6 | 0.00 | 0.55 | 0.55 | 95 | 1008.3 |
| 20260506130740 | 48 | 236 | 0.0 | 0.9 | 0.00 | 0.55 | 0.55 | 96 | 1008.4 |
| 20260506130237 | 48 | 172 | 0.0 | 0.9 | 0.00 | 0.55 | 0.55 | 96 | 1008.5 |
| 20260506125736 | 47 | 212 | 1.7 | 1.7 | 0.00 | 0.55 | 0.55 | 96 | 1008.5 |
| 20260506125233 | 47 | 47 | 0.9 | 4.3 | 0.00 | 0.55 | 0.55 | 96 | 1008.4 |
| 20260506124731 | 48 | 82 | 0.9 | 0.9 | 0.00 | 0.55 | 0.55 | 96 | 1008.3 |
| 20260506124229 | 47 | 179 | 0.9 | 1.7 | 0.00 | 0.55 | 0.55 | 96 | 1008.0 |
| 20260506123726 | 47 | 190 | 0.0 | 0.0 | 0.00 | 0.55 | 0.55 | 96 | 1007.8 |
| 20260506123225 | 47 | 140 | 0.0 | 0.9 | 0.00 | 0.55 | 0.55 | 96 | 1007.9 |
| 20260506122721 | 47 | 171 | 0.0 | 0.9 | 0.00 | 0.55 | 0.55 | 96 | 1007.9 |
| 20260506122218 | 46 | 103 | 0.0 | 0.9 | 0.00 | 0.55 | 0.55 | 96 | 1008.4 |
| 20260506121716 | 47 | 189 | 0.9 | 1.7 | 0.00 | 0.55 | 0.55 | 96 | 1008.1 |
| 20260506121212 | 46 | 195 | 0.9 | 1.7 | 0.00 | 0.55 | 0.55 | 96 | 1008.0 |
| 20260506120710 | 46 | 192 | 0.0 | 0.9 | 0.00 | 0.55 | 0.55 | 96 | 1007.9 |
| 20260506120208 | 46 | 152 | 0.9 | 0.9 | 0.00 | 0.55 | 0.55 | 96 | 1007.8 |
| 20260506115706 | 46 | 205 | 1.7 | 2.6 | 0.00 | 0.55 | 0.55 | 96 | 1007.9 |
| 20260506115204 | 46 | 132 | 0.9 | 1.7 | 0.00 | 0.55 | 0.55 | 96 | 1007.7 |
| 20260506114701 | 46 | 184 | 0.9 | 0.9 | 0.00 | 0.55 | 0.55 | 96 | 1007.4 |
| 20260506114158 | 46 | 204 | 2.6 | 2.6 | 0.07 | 0.55 | 0.55 | 96 | 1006.9 |
| 20260506113657 | 46 | 181 | 0.0 | 0.9 | 0.00 | 0.54 | 0.54 | 96 | 1006.9 |
| 20260506113154 | 46 | 244 | 2.6 | 2.6 | 0.00 | 0.54 | 0.54 | 96 | 1007.1 |
| 20260506112649 | 46 | 189 | 0.9 | 1.7 | 0.00 | 0.54 | 0.54 | 96 | 1007.1 |
| 20260506112148 | 46 | 273 | 2.6 | 2.6 | 0.00 | 0.54 | 0.54 | 96 | 1007.4 |
| 20260506111645 | 46 | 194 | 0.9 | 1.7 | 0.00 | 0.54 | 0.54 | 96 | 1006.8 |
| 20260506111143 | 46 | 169 | 0.0 | 1.7 | 0.00 | 0.54 | 0.54 | 96 | 1007.4 |
| 20260506110640 | 46 | 136 | 0.9 | 1.7 | 0.00 | 0.54 | 0.54 | 96 | 1007.1 |
| 20260506110137 | 46 | 182 | 0.0 | 0.9 | 0.00 | 0.54 | 0.54 | 96 | 1007.1 |
| 20260506105633 | 46 | 127 | 0.9 | 2.6 | 0.00 | 0.54 | 0.54 | 96 | 1006.7 |
| 20260506105130 | 46 | 192 | 0.0 | 2.6 | 0.00 | 0.54 | 0.54 | 96 | 1006.7 |
| 20260506104629 | 46 | 234 | 1.7 | 1.7 | 0.00 | 0.54 | 0.54 | 96 | 1006.7 |
| 20260506104126 | 46 | 254 | 0.9 | 0.9 | 0.00 | 0.54 | 0.54 | 96 | 1006.1 |
| 20260506103623 | 46 | 112 | 0.9 | 1.7 | 0.00 | 0.54 | 0.54 | 95 | 1005.8 |
| 20260506103120 | 46 | 200 | 0.9 | 1.7 | 0.00 | 0.54 | 0.54 | 95 | 1005.8 |
| 20260506102618 | 46 | 167 | 0.0 | 0.9 | 0.05 | 0.54 | 0.54 | 95 | 1005.4 |
| 20260506102115 | 46 | 109 | 0.0 | 0.9 | 0.05 | 0.54 | 0.54 | 95 | 1005.6 |
| 20260506101612 | 46 | 117 | 1.7 | 2.6 | 0.00 | 0.53 | 0.53 | 95 | 1005.7 |
| 20260506101108 | 46 | 283 | 2.6 | 5.2 | 0.00 | 0.53 | 0.53 | 95 | 1005.7 |
| 20260506100607 | 46 | 217 | 2.6 | 2.6 | 0.00 | 0.53 | 0.53 | 95 | 1006.0 |
| 20260506100105 | 46 | 273 | 4.3 | 5.2 | 0.00 | 0.53 | 0.53 | 95 | 1005.9 |
| 20260506095604 | 47 | 263 | 2.6 | 2.6 | 0.00 | 0.53 | 0.53 | 96 | 1005.7 |
| 20260506095100 | 47 | 128 | 0.0 | 0.9 | 0.00 | 0.53 | 0.53 | 96 | 1005.8 |
| 20260506094557 | 47 | 346 | 2.6 | 2.6 | 0.00 | 0.53 | 0.53 | 95 | 1005.8 |
| 20260506094055 | 47 | 127 | 1.7 | 2.6 | 0.07 | 0.53 | 0.53 | 95 | 1005.7 |
| 20260506093553 | 47 | 99 | 0.0 | 1.7 | 0.00 | 0.52 | 0.52 | 95 | 1005.5 |
| 20260506093051 | 47 | 92 | 0.0 | 0.9 | 0.05 | 0.52 | 0.52 | 95 | 1005.8 |
| 20260506092548 | 47 | 110 | 0.9 | 1.7 | 0.05 | 0.52 | 0.52 | 95 | 1006.2 |
| 20260506092045 | 47 | 159 | 0.0 | 1.7 | 0.07 | 0.51 | 0.51 | 95 | 1006.5 |
| 20260506091543 | 47 | 69 | 2.6 | 5.2 | 0.12 | 0.51 | 0.51 | 95 | 1006.4 |
| 20260506091040 | 47 | 121 | 0.9 | 2.6 | 0.17 | 0.50 | 0.50 | 95 | 1006.1 |
| 20260506090538 | 47 | 139 | 0.9 | 1.7 | 0.12 | 0.48 | 0.48 | 95 | 1005.7 |
| 20260506090034 | 48 | 258 | 2.6 | 4.3 | 0.14 | 0.47 | 0.47 | 96 | 1006.0 |
| 20260506085531 | 48 | 325 | 0.9 | 6.1 | 0.19 | 0.46 | 0.46 | 96 | 1005.8 |
| 20260506085027 | 48 | 250 | 2.6 | 2.6 | 0.12 | 0.44 | 0.44 | 96 | 1005.8 |
| 20260506084525 | 49 | 212 | 1.7 | 6.1 | 0.17 | 0.43 | 0.43 | 96 | 1005.9 |
| 20260506084020 | 50 | 222 | 0.9 | 7.0 | 0.19 | 0.42 | 0.42 | 96 | 1005.9 |
| 20260506083518 | 50 | 255 | 0.9 | 5.2 | 0.07 | 0.40 | 0.40 | 96 | 1005.6 |
| 20260506083015 | 50 | 276 | 0.9 | 1.7 | 0.05 | 0.39 | 0.39 | 96 | 1005.4 |
| 20260506082512 | 50 | 90 | 0.9 | 1.7 | 0.05 | 0.39 | 0.39 | 96 | 1005.1 |
| 20260506082007 | 50 | 135 | 0.0 | 0.9 | 0.00 | 0.38 | 0.38 | 96 | 1004.9 |
| 20260506081506 | 50 | 83 | 0.0 | 2.6 | 0.00 | 0.38 | 0.38 | 96 | 1004.8 |
| 20260506081003 | 50 | 234 | 0.0 | 4.3 | 0.07 | 0.38 | 0.38 | 96 | 1004.9 |
| 20260506080500 | 50 | 192 | 0.9 | 2.6 | 0.12 | 0.38 | 0.38 | 96 | 1005.0 |
| 20260506073443 | 52 | 348 | 0.9 | 1.7 | 0.17 | 0.28 | 0.28 | 97 | 1004.7 |
| 20260506072941 | 53 | 273 | 2.6 | 2.6 | 0.24 | 0.27 | 0.27 | 97 | 1004.7 |
| 20260506072438 | 53 | 52 | 1.7 | 2.6 | 0.12 | 0.24 | 0.24 | 97 | 1004.3 |
| 20260506071936 | 53 | 139 | 0.0 | 1.7 | 0.12 | 0.23 | 0.23 | 97 | 1004.5 |
| 20260506071433 | 53 | 151 | 0.0 | 0.9 | 0.12 | 0.22 | 0.22 | 97 | 1004.5 |
| 20260506070930 | 54 | 158 | 0.9 | 1.7 | 0.14 | 0.21 | 0.21 | 96 | 1004.1 |
| 20260506070427 | 56 | 109 | 0.9 | 1.7 | 0.12 | 0.20 | 0.20 | 96 | 1004.4 |
| 20260506062405 | 58 | 172 | 0.0 | 0.0 | 0.07 | 0.10 | 0.10 | 97 | 1004.7 |
| 20260506061900 | 58 | 138 | 0.0 | 0.0 | 0.00 | 0.09 | 0.09 | 97 | 1004.8 |
| 20260506061357 | 58 | 192 | 0.0 | 0.0 | 0.00 | 0.09 | 0.09 | 97 | 1004.6 |
| 20260506060855 | 58 | 126 | 0.0 | 0.0 | 0.00 | 0.09 | 0.09 | 97 | 1004.6 |
| 20260506060353 | 58 | 149 | 0.0 | 0.0 | 0.00 | 0.09 | 0.09 | 97 | 1004.6 |
| 20260506051325 | 59 | 198 | 0.0 | 0.9 | 0.00 | 0.08 | 0.08 | 97 | 1005.6 |
| 20260506050823 | 59 | 116 | 0.0 | 0.0 | 0.00 | 0.08 | 0.08 | 97 | 1005.5 |
| 20260506050320 | 59 | 187 | 0.0 | 0.0 | 0.00 | 0.08 | 0.08 | 97 | 1005.7 |
| 20260506044810 | 59 | 287 | 0.9 | 0.9 | 0.12 | 0.08 | 0.08 | 97 | 1005.8 |
| 20260506044308 | 59 | 201 | 0.9 | 1.7 | 0.07 | 0.07 | 0.07 | 97 | 1005.9 |
| 20260506043805 | 59 | 129 | 0.0 | 0.0 | 0.05 | 0.06 | 0.06 | 97 | 1005.9 |
| 20260506043302 | 59 | 157 | 0.0 | 0.0 | 0.12 | 0.06 | 0.06 | 97 | 1006.1 |
| 20260506042801 | 59 | 114 | 0.0 | 0.0 | 0.12 | 0.05 | 0.05 | 97 | 1006.1 |
| 20260506042259 | 59 | 125 | 0.0 | 0.0 | 0.12 | 0.04 | 0.04 | 97 | 1006.2 |
| 20260506041757 | 59 | 108 | 0.0 | 0.0 | 0.12 | 0.03 | 0.03 | 97 | 1006.3 |
| 20260506041254 | 59 | 171 | 0.9 | 0.9 | 0.05 | 0.02 | 0.02 | 97 | 1006.3 |
| 20260506040751 | 59 | 123 | 0.0 | 0.0 | 0.07 | 0.01 | 0.01 | 97 | 1006.4 |
| 20260506040248 | 59 | 156 | 0.0 | 0.0 | 0.12 | 0.01 | 0.01 | 97 | 1006.2 |
| 20260506035745 | 59 | 119 | 0.0 | 0.0 | 0.12 | 0.29 | 0.29 | 97 | 1006.1 |
| 20260506035242 | 59 | 133 | 0.0 | 0.0 | 0.00 | 0.27 | 0.27 | 97 | 1006.2 |
| 20260506034739 | 59 | 139 | 0.0 | 0.0 | 0.05 | 0.27 | 0.27 | 97 | 1006.4 |
| 20260506034236 | 59 | 172 | 0.0 | 0.0 | 0.05 | 0.27 | 0.27 | 97 | 1006.4 |
| 20260506033733 | 59 | 115 | 0.0 | 0.0 | 0.07 | 0.26 | 0.26 | 97 | 1006.5 |
| 20260506033230 | 59 | 132 | 0.0 | 0.0 | 0.07 | 0.26 | 0.26 | 97 | 1006.3 |
| 20260506032727 | 59 | 152 | 0.0 | 0.0 | 0.00 | 0.25 | 0.25 | 97 | 1006.2 |
| 20260506032224 | 59 | 124 | 0.0 | 0.0 | 0.07 | 0.25 | 0.25 | 97 | 1006.2 |
| 20260506031720 | 59 | 153 | 0.0 | 0.0 | 0.05 | 0.24 | 0.24 | 97 | 1006.5 |
| 20260506031218 | 59 | 129 | 0.0 | 0.0 | 0.12 | 0.24 | 0.24 | 97 | 1006.5 |
| 20260506030716 | 59 | 108 | 0.0 | 0.0 | 0.12 | 0.23 | 0.23 | 96 | 1006.4 |
| 20260506030213 | 59 | 129 | 0.0 | 0.0 | 0.12 | 0.22 | 0.22 | 96 | 1006.4 |
| 20260506025710 | 59 | 120 | 0.0 | 0.0 | 0.12 | 0.21 | 0.21 | 96 | 1006.3 |
| 20260506025206 | 59 | 123 | 0.0 | 0.0 | 0.12 | 0.20 | 0.20 | 96 | 1006.4 |
| 20260506024703 | 59 | 129 | 0.0 | 0.0 | 0.12 | 0.19 | 0.19 | 96 | 1006.6 |
| 20260506024159 | 59 | 144 | 0.0 | 0.0 | 0.12 | 0.18 | 0.18 | 96 | 1006.3 |
| 20260506023656 | 59 | 151 | 0.0 | 0.0 | 0.07 | 0.17 | 0.17 | 96 | 1006.4 |
| 20260506023154 | 59 | 126 | 0.0 | 0.0 | 0.05 | 0.16 | 0.16 | 96 | 1006.3 |
| 20260506022650 | 59 | 153 | 0.0 | 0.0 | 0.05 | 0.16 | 0.16 | 96 | 1006.4 |
| 20260506022148 | 59 | 153 | 0.0 | 0.0 | 0.07 | 0.15 | 0.15 | 96 | 1006.2 |
| 20260506021646 | 59 | 168 | 0.0 | 0.0 | 0.07 | 0.15 | 0.15 | 96 | 1006.4 |
| 20260506021143 | 59 | 106 | 0.0 | 0.0 | 0.00 | 0.14 | 0.14 | 96 | 1006.4 |
| 20260506020640 | 59 | 195 | 0.9 | 0.9 | 0.00 | 0.14 | 0.14 | 96 | 1006.3 |
| 20260506020137 | 59 | 146 | 0.0 | 0.9 | 0.00 | 0.14 | 0.14 | 96 | 1006.3 |
| 20260506015635 | 59 | 120 | 0.0 | 0.9 | 0.00 | 0.14 | 0.14 | 96 | 1006.5 |
| 20260506015132 | 59 | 198 | 0.9 | 2.6 | 0.05 | 0.14 | 0.14 | 96 | 1006.6 |
| 20260506014629 | 59 | 128 | 0.0 | 0.0 | 0.05 | 0.14 | 0.14 | 96 | 1006.5 |
| 20260506014124 | 59 | 112 | 0.0 | 0.0 | 0.00 | 0.13 | 0.13 | 96 | 1006.5 |
| 20260506013623 | 59 | 150 | 0.0 | 0.0 | 0.00 | 0.13 | 0.13 | 96 | 1006.6 |
| 20260506013119 | 59 | 149 | 0.0 | 0.0 | 0.00 | 0.13 | 0.13 | 96 | 1006.3 |
| 20260506012616 | 59 | 126 | 0.0 | 0.0 | 0.00 | 0.13 | 0.13 | 96 | 1006.4 |
| 20260506012112 | 59 | 138 | 0.0 | 0.0 | 0.00 | 0.13 | 0.13 | 96 | 1006.1 |
| 20260506011610 | 59 | 172 | 0.0 | 0.0 | 0.00 | 0.13 | 0.13 | 95 | 1006.4 |
| 20260506011106 | 59 | 150 | 0.0 | 0.0 | 0.00 | 0.13 | 0.13 | 95 | 1006.1 |
| 20260506010600 | 59 | 120 | 0.0 | 0.0 | 0.00 | 0.13 | 0.13 | 95 | 1006.2 |
| 20260506010056 | 59 | 125 | 0.0 | 0.0 | 0.00 | 0.13 | 0.13 | 95 | 1006.5 |
| 20260506005553 | 59 | 134 | 0.0 | 0.0 | 0.00 | 0.13 | 0.13 | 95 | 1006.2 |
| 20260506005049 | 59 | 137 | 0.0 | 0.9 | 0.00 | 0.13 | 0.13 | 95 | 1006.3 |
| 20260506004547 | 59 | 153 | 0.0 | 1.7 | 0.00 | 0.13 | 0.13 | 95 | 1006.2 |
| 20260506004043 | 59 | 139 | 0.0 | 0.0 | 0.00 | 0.13 | 0.13 | 94 | 1006.2 |
| 20260506003540 | 60 | 120 | 0.0 | 0.0 | 0.00 | 0.13 | 0.13 | 94 | 1006.4 |
| 20260506003036 | 60 | 125 | 0.0 | 0.0 | 0.00 | 0.13 | 0.13 | 94 | 1006.3 |
| 20260506002532 | 60 | 124 | 0.0 | 1.7 | 0.00 | 0.13 | 0.13 | 94 | 1006.3 |
| 20260506002028 | 60 | 263 | 1.7 | 2.6 | 0.00 | 0.13 | 0.13 | 94 | 1006.2 |
| 20260506001524 | 60 | 189 | 0.9 | 0.9 | 0.00 | 0.13 | 0.13 | 93 | 1006.4 |
| 20260506001022 | 60 | 154 | 0.9 | 0.9 | 0.00 | 0.13 | 0.13 | 93 | 1006.5 |
| 20260506000519 | 60 | 132 | 0.9 | 0.9 | 0.07 | 0.13 | 0.13 | 92 | 1006.5 |
| 20260506000017 | 60 | 34 | 2.6 | 4.3 | 0.14 | 0.13 | 0.13 | 92 | 1006.7 |
| 20260505235514 | 60 | 86 | 0.9 | 5.2 | 0.59 | 0.12 | 0.12 | 91 | 1006.4 |
| 20260505235011 | 61 | 226 | 7.0 | 9.6 | 0.64 | 0.11 | 0.11 | 90 | 1006.6 |
| 20260505234508 | 62 | 218 | 4.3 | 8.7 | 0.05 | 0.01 | 0.01 | 87 | 1006.5 |
| 20260505234005 | 63 | 357 | 1.7 | 7.0 | 0.00 | 0.00 | 0.00 | 85 | 1005.9 |
| 20260505233502 | 64 | 171 | 1.7 | 6.1 | 0.00 | 0.00 | 0.00 | 82 | 1005.8 |
| 20260505232959 | 66 | 249 | 5.2 | 8.7 | 0.00 | 0.00 | 0.00 | 78 | 1006.0 |